Flag for Canada Weather past 2 weeks in Greater Sudbury, Ontario, Canada

Now
3 °F

Passing clouds.


Feels Like: -6 °F
Forecast: -13 / 8 °F
Wind: 5 mph from North

Location: Sudbury

Current Time: Jan 25, 2015 at 8:14:13 PM

Latest Report: Jan 25, 2015 at 7:00 PM


Visibility: 15 mi

Pressure: 30.16 "Hg

Humidity: 60%

Dew point: -8 °F

Location of Greater SudburyLocation

Historic Weather in Greater Sudbury — Graph

°F

Greater Sudbury temperature yesterday

Maximum temperature yesterday: 32 °F (at 1:00 PM)
Minimum temperature yesterday: 5 °F (at 9:00 PM)
Average temperature yesterday: 24 °F

Past Weeks' High & Low Weather Summary

 TemperatureHumidityPressure
High34 °F (Jan 18, 9:00 AM)100% (Jan 15, 1:00 AM)30.83 "Hg (Jan 15, 1:00 AM)
Low-22 °F (Jan 13, 8:00 AM)47% (Jan 20, 3:00 PM)29.36 "Hg (Jan 24, 2:51 PM)
Average9 °F78%30.06 "Hg
* Reported Jan 10 7:00 PM — Jan 25 7:00 PM, Greater Sudbury, Weather by CustomWeather, © 2014

Note: Actual official high and low records may vary slightly from our data, if they occured in-between our weather recording intervals... More about our weather records

Advertising

Greater Sudbury weather history for previous 24 hours

 ConditionsComfort  
Time TempWeatherWind HumidityBarometerVisibility
7:00 PM
Jan 25
3 °FPassing clouds.5 mph60%30.16 "Hg15 mi
6:00 PM3 °FPassing clouds.6 mph55%30.13 "Hg20 mi
5:00 PM7 °FPassing clouds.2 mph47%30.11 "Hg20 mi
4:00 PM7 °FPassing clouds.8 mph47%30.09 "Hg20 mi
3:00 PM7 °FScattered clouds.8 mph47%30.07 "Hg20 mi
2:00 PM5 °FPassing clouds.12 mph51%30.05 "Hg20 mi
1:00 PM3 °FLow level haze.14 mph50%30.04 "Hg20 mi
12:00 PM0 °FPassing clouds.16 mph54%30.04 "Hg20 mi
11:00 AM-2 °FSunny.17 mph59%30.05 "Hg20 mi
10:00 AM-4 °FSunny.16 mph65%30.03 "Hg20 mi
9:00 AM-8 °FSunny.13 mph70%30.01 "Hg20 mi
8:00 AM-8 °FSunny.12 mph70%29.98 "Hg20 mi
7:00 AM-8 °FClear.9 mph77%29.96 "Hg15 mi
6:00 AM-8 °FPassing clouds.9 mph77%29.91 "Hg15 mi
5:00 AM-8 °FPassing clouds.8 mph84%29.87 "Hg15 mi
4:00 AM-6 °FPassing clouds.8 mph77%29.83 "Hg15 mi
3:00 AM-4 °FPassing clouds.10 mph77%29.80 "Hg15 mi
2:00 AM-2 °FPassing clouds.7 mph77%29.76 "Hg15 mi
1:00 AM0 °FPassing clouds.14 mph71%29.72 "Hg15 mi
12:00 AM1 °FPassing clouds.16 mph71%29.70 "Hg15 mi
11:00 PM
Jan 24
5 °FLight snow. Passing clouds.16 mph72%29.67 "Hg15 mi
10:00 PM5 °FLight snow. Passing clouds.18 mph72%29.66 "Hg15 mi
9:00 PM5 °FLight snow. Passing clouds.18 mph78%29.64 "Hg15 mi
8:00 PM7 °FPassing clouds.15 mph72%29.61 "Hg15 mi
Weather by CustomWeather, © 2014

See weather overviewHow to use our weather pages